Harare Kutsaga, Zimbabwe

1:41 AM CAT on July 24, 2017 (GMT +0200)
Harare Kutsaga

Weather History for FVHA - June, 2013

Change the Weather History Date:

Friday, June 14, 2013

  Actual Average Record
Temperature  
Mean Temperature 56 °F -  
Max Temperature 72 °F 71 °F 80 °F (2005)
Min Temperature 39 °F 43 °F 39 °F (2012)
Degree Days  
Heating Degree Days 10    
Growing Degree Days 6 (Base 50)    
Moisture  
Dew Point 41 °F    
Average Humidity 57    
Maximum Humidity 100    
Minimum Humidity 19    
Precipitation  
Precipitation 0.00 in 0.00 in - ()
Sea Level Pressure  
Sea Level Pressure 30.24 in    
Wind  
Wind Speed 3 mph ()    
Max Wind Speed 7 mph    
Max Gust Speed -    
Visibility 16.5 miles    
Events      
Averages and records for this station are not official NWS values.
T = Trace of Precipitation, MM = Missing Value Source: Averaged Metar Reports

Daily Weather History Graph

Daily Weather History Graph

Search for Another Location

Airport or City:

Trip Planner

Search our weather history database for the weather conditions in past years. The results will help you decide how hot, cold, wet, or windy it might be!

Date:

Astronomy

Jun. 14, 2013 Rise Set
Actual Time 6:23 AM CAT 5:27 PM CAT
Civil Twilight 6:00 AM CAT 5:51 PM CAT
Nautical Twilight 5:33 AM CAT 6:18 PM CAT
Astronomical Twilight 5:06 AM CAT 6:45 PM CAT
Moon 10:20 AM CAT (6/14) 10:22 PM CAT (6/14)
Length of Visible Light 11h 51m
Length of Day
11h 03m
Waxing Crescent, 28% of the Moon is Illuminated
Jun 14
Waxing Crescent
Jun 16
First Quarter
Jun 23
Full
Jun 30
Last Quarter
Jul 8
New

Hourly Weather History & Observations

Time (CAT) Temp. Windchill Dew Point Humidity Pressure Visibility Wind Dir Wind Speed Gust Speed Precip Events Conditions
12:00 AM 46.4 °F 44.3 °F 42.8 °F 87% 30.24 in - ENE 4.6 mph - N/A   Clear
2:00 AM 44 °F - 42 °F 89%  in 19 mi NE 3.5 mph - -  
2:00 AM 42.8 °F 41.1 °F 41.0 °F 93% 30.21 in - NE 3.5 mph - N/A   Clear
5:00 AM 39.2 °F 37.0 °F 39.2 °F 100% 30.21 in - South 3.5 mph - N/A   Clear
6:00 AM 41.0 °F 38.0 °F 39.2 °F 93% 30.24 in - NE 4.6 mph - N/A   Clear
7:00 AM 44.6 °F 41.4 °F 41.0 °F 87% 30.24 in - ENE 5.8 mph - N/A   Clear
8:00 AM 55 °F - 46 °F 62%  in 9 mi North 1.2 mph - -   Haze
8:00 AM 55.4 °F - 46.4 °F 72% 30.27 in - Variable 1.2 mph - N/A   Clear
9:00 AM 60.8 °F - 42.8 °F 52% 30.30 in - West 4.6 mph - N/A   Clear
10:00 AM 64.4 °F - 42.8 °F 45% 30.30 in - West 6.9 mph - N/A   Clear
11:00 AM 68.0 °F - 41.0 °F 37% 30.27 in - Variable 6.9 mph - N/A   Clear
12:00 PM 68.0 °F - 41.0 °F 37% 30.27 in - Variable 6.9 mph - N/A   Clear
1:00 PM 69.8 °F - 39.2 °F 33% 30.24 in - Variable 4.6 mph - N/A   Clear
2:00 PM 72 °F - 39 °F 19%  in 19 mi SW 4.6 mph - -  
2:00 PM 71.6 °F - 39.2 °F 31% 30.21 in - Variable 4.6 mph - N/A   Clear
3:00 PM 73.4 °F - 39.2 °F 29% 30.24 in - Variable 3.5 mph - N/A   Clear
4:00 PM 71.6 °F - 39.2 °F 31% 30.18 in - Variable 4.6 mph - N/A   Clear
5:00 PM 69.8 °F - 41.0 °F 35% 30.21 in - Calm Calm - N/A   Clear
6:00 PM 62.6 °F - 41.0 °F 45% 30.21 in - WNW 2.3 mph - N/A   Clear
7:00 PM 57.2 °F - 41.0 °F 55% 30.21 in - Calm Calm - N/A   Clear
8:00 PM 57 °F - 40 °F 41%  in 19 mi North 2.3 mph - -  
8:00 PM 57.2 °F - 39.2 °F 51% 30.24 in - North 2.3 mph - N/A   Clear
9:00 PM 50.0 °F - 39.2 °F 66% 30.24 in - ENE 4.6 mph - N/A   Clear
10:00 PM 50.0 °F - 39.2 °F 66% 30.24 in - East 4.6 mph - N/A   Clear
11:00 PM 48.2 °F - 39.2 °F 71% 30.24 in - East 4.6 mph - N/A   Clear